#timestamp,LO_Frequency,Hit,StdDev 
1635264015.3,286046998.7,N
1635264035.1,286047000.7,N
1635264055.9,286046998.2,N
1635264075.7,286047001.0,N
1635264095.5,286046999.9,N
1635264115.4,286047002.3,N
1635264135.2,286047002.5,N
1635264155.0,286047002.3,N
1635264155.9,286047002.3,N
1635264175.8,286047002.7,N
1635264195.6,286047002.7,N
1635264215.4,286047002.3,N
1635264235.3,286047002.6,N
1635264255.1,286047002.5,N
1635264275.8,286047000.1,N
1635264295.7,286047002.1,N
1635264315.5,286047001.8,N
1635264335.3,286047003.8,N
1635264355.2,286047004.2,N
1635264375.9,286047003.2,N
1635264395.7,286047004.2,N
1635264415.6,286047005.4,Y
1635264435.4,286047003.1,P
1635264455.2,286047004.4,P
1635264475.1,286047003.1,N
1635264476.0,286047003.1,Y
1635264495.8,286047000.6,P
1635264515.6,286047002.5,N
1635264535.5,286047000.4,N
1635264555.3,286047000.4,N
1635264575.1,286047002.3,N
1635264595.9,286047001.8,N
1635264615.7,286047001.3,N
1635264635.5,286047002.6,N
1635264655.4,286047001.4,N
1635264675.2,286047002.9,Y
1635264695.0,286047001.6,P
1635264695.9,286047001.6,P
1635264715.8,286047001.9,P
1635264735.6,286047001.7,Y
1635264755.4,286047000.4,P
1635264775.3,286046999.7,N
1635264795.1,286047002.7,P
1635264815.8,286047000.1,N
1635264835.7,286047000.1,N
1635264855.5,286047002.1,N
1635264875.3,286047001.6,N
1635264895.2,286047002.7,N
1635264915.9,286047000.2,N
1635264935.7,286047000.4,N
1635264955.6,286047002.2,N
1635264975.4,286047002.6,N
1635264995.2,286047001.9,N
1635265015.1,286047002.4,N
1635265016.0,286047002.4,N
1635265035.8,286046999.7,N
1635265055.6,286046999.7,N
1635265075.5,286047002.6,N
1635265095.3,286047002.7,N
1635265115.1,286047001.9,N
1635265135.9,286047003.7,Y
1635265155.7,286047001.9,P
1635265175.5,286047001.9,P
1635265195.4,286047004.4,P
1635265215.2,286047001.9,N
1635265235.0,286047002.1,N
1635265235.9,286047002.1,N
1635265255.8,286047001.9,N
1635265275.6,286047003.9,Y
1635265295.4,286047000.6,P
1635265315.3,286047000.7,N
1635265335.1,286047000.8,N
1635265336.0,286047000.8,N
1635265355.8,286046998.6,N
1635265375.7,286046998.7,N
1635265395.5,286047001.1,N
1635265415.3,286046998.4,N
1635265435.2,286046999.2,N
1635265455.9,286046999.6,N
1635265475.7,286046999.5,N
1635265495.6,286046996.5,Y
1635265515.4,286046998.6,P
1635265535.2,286046998.6,N
1635265555.1,286047000.6,N
1635265556.0,286047000.6,N
1635265575.8,286047000.6,N
1635265595.6,286046998.8,N
1635265615.5,286046998.7,N
1635265635.3,286046998.3,N
1635265655.1,286046998.7,N
1635265675.9,286046998.7,N
1635265695.7,286046998.2,N
1635265715.5,286046999.2,N
1635265735.4,286046999.5,N
1635265755.2,286046998.4,N
1635265775.0,286046998.7,N
1635265775.9,286046998.7,N
1635265795.8,286046999.4,N
1635265815.6,286046996.8,Y
1635265835.4,286046998.8,P
1635265855.3,286046998.8,P
1635265875.1,286046998.7,P
1635265876.0,286046998.7,Y
1635265895.8,286047002.8,P
1635265915.7,286047000.3,N
1635265935.5,286047001.0,N
1635265955.3,286047000.6,N
1635265975.2,286046999.9,N
1635265995.9,286047001.1,N
1635266015.7,286047000.2,N
1635266035.6,286047000.0,N
1635266055.4,286046999.7,N
1635266075.2,286047000.0,N
1635266095.1,286046999.7,N
1635266096.0,286046999.7,N
1635266115.8,286047000.5,N
1635266135.6,286047000.0,N
1635266155.5,286046999.9,N
1635266175.3,286046998.4,N
1635266195.1,286046998.6,N
1635266215.9,286046998.2,N
1635266235.7,286046998.1,N
1635266255.5,286047000.3,N
1635266275.4,286047001.9,N
1635266295.2,286047002.6,N
1635266315.0,286047000.4,N
1635266315.9,286047000.4,N
1635266335.8,286046999.9,N
1635266355.6,286046998.6,N
1635266375.4,286046998.1,N
1635266395.3,286046998.8,N
1635266415.1,286046998.5,N
1635266416.0,286046998.5,N
1635266435.8,286046998.8,N
1635266455.7,286047000.4,N
1635266475.5,286047001.1,N
1635266495.3,286047000.5,N
1635266515.2,286047002.8,N
1635266535.9,286047001.1,N
1635266555.7,286047000.2,N
1635266575.6,286047000.6,N
1635266595.4,286047000.3,N
1635266615.2,286047001.0,N
1635266635.1,286047001.1,N
1635266636.0,286047001.1,N
1635266655.8,286046999.3,N
1635266675.6,286046998.5,N
1635266695.5,286047001.1,N
1635266715.3,286046998.5,N
1635266735.1,286047002.6,N
1635266755.9,286047000.3,N
1635266775.7,286047002.0,N
1635266795.5,286047001.3,N
1635266815.3,286047000.2,N
1635266835.2,286047001.0,N
1635266855.0,286046998.6,N
1635266855.9,286046998.6,N
1635266875.8,286047000.8,N
1635266895.6,286046998.2,N
1635266915.4,286046998.8,N
1635266935.3,286047000.8,N
1635266955.1,286047000.3,N
1635266956.0,286047000.3,N
1635266975.8,286047000.7,N
1635266995.7,286046998.3,N
1635267015.5,286046999.3,N
1635267035.3,286046999.3,N
1635267055.1,286046998.8,N
1635267075.9,286047000.9,N
1635267095.7,286047000.7,N
1635267115.5,286047000.7,N
1635267135.4,286047000.0,N
1635267155.2,286047001.0,N
1635267175.0,286046998.8,N
1635267176.0,286046998.8,N
1635267195.8,286046999.3,N
1635267215.6,286046998.5,N
1635267235.4,286046999.4,N
1635267255.3,286047001.2,N
1635267275.1,286046997.1,N
1635267295.9,286046998.3,N
1635267315.7,286046997.2,N
1635267335.5,286046998.1,N
1635267355.3,286046998.4,N
1635267375.2,286046998.3,N
1635267395.0,286047000.7,N
1635267395.9,286047000.7,N
1635267415.7,286047002.4,N
1635267435.6,286047002.2,N
1635267455.4,286047001.9,N
1635267475.2,286047000.3,N
1635267495.1,286047000.2,N
1635267496.0,286047000.2,N
1635267515.8,286047000.2,N
1635267535.6,286047000.2,N
1635267555.5,286046998.1,N
1635267575.3,286047001.2,N
1635267595.1,286046998.7,N
